GFSCGP_250_rhum_003.txt.gz
RH
100 100 100 100 98 89 84 71 95 100 96 93 64 47 45 55 49 46 36 36 35 32 27 23 22 28 30 27 26 22 21 25 28 26 23 23 39 54 44 26 28 24 34 56
100 100 100 100 98 94 74 59 85 100 100 86 74 60 66 60 64 56 45 38 41 38 31 26 23 24 29 31 28 28 25 23 27 31 31 28 37 53 47 28 23 31 70 96
100 100 100 100 100 100 100 100 86 73 79 74 78 82 74 83 64 58 59 59 48 43 39 32 26 24 26 31 31 28 29 26 25 45 56 53 39 48 49 28 30 55 84 100
100 100 100 100 97 100 94 79 64 64 64 69 75 57 58 61 79 61 64 68 67 51 45 40 32 27 27 29 33 30 30 32 27 32 69 43 30 44 33 27 35 33 69 94
100 98 78 76 74 60 52 56 50 45 41 38 42 37 50 87 99 84 74 75 65 60 52 52 39 27 28 28 32 35 31 35 37 33 48 56 47 43 28 26 25 33 67 78
69 65 77 88 71 53 48 42 35 34 32 24 34 32 38 78 100 96 88 80 73 61 61 51 41 31 30 34 34 35 34 33 38 43 41 38 42 34 31 28 27 45 67 59
99 98 87 76 58 52 45 37 31 32 34 31 39 36 37 51 63 86 92 83 83 73 75 52 50 38 46 43 43 38 37 33 37 45 46 34 30 32 33 29 34 57 75 51
100 94 83 70 56 46 39 25 23 20 17 14 25 25 47 52 76 76 100 70 62 72 71 62 54 42 62 71 57 50 40 39 38 47 47 41 32 31 33 32 41 70 73 55
97 87 68 50 42 33 21 12 8 6 6 7 10 17 29 40 52 77 81 100 67 67 74 65 57 47 82 78 69 57 46 43 42 50 51 42 38 33 34 35 44 70 72 60
90 64 48 35 26 16 6 5 4 3 3 5 10 16 26 23 25 42 72 100 95 70 86 77 70 46 56 86 83 76 56 45 45 53 54 48 44 36 36 38 42 63 74 63
64 59 57 81 67 42 22 7 2 2 2 3 6 12 20 15 16 28 61 96 100 72 90 77 82 62 56 69 70 60 63 56 48 53 54 54 49 41 42 38 41 56 71 70
77 87 76 57 63 43 19 8 5 2 2 2 5 11 14 13 12 20 38 73 100 86 68 80 78 83 76 80 63 53 53 59 55 50 52 57 54 48 43 42 40 43 61 80
90 74 65 66 58 22 18 14 10 6 4 4 4 8 8 12 14 19 29 50 100 85 65 78 98 96 85 81 87 73 57 56 53 48 49 62 62 56 50 44 41 48 68 75
86 70 58 44 62 54 46 32 18 16 10 7 7 7 10 14 17 18 24 33 60 84 68 78 88 86 87 82 84 65 61 54 50 49 50 64 66 61 50 49 52 62 73 80
78 70 79 68 85 85 94 87 77 57 32 15 12 9 8 9 17 19 23 31 43 64 58 72 93 92 81 85 82 72 71 58 46 46 50 57 64 62 56 56 64 71 82 84
79 76 100 91 100 100 95 98 82 74 58 34 20 15 12 11 9 14 22 30 39 46 50 61 82 91 92 75 70 72 78 78 46 45 52 63 66 56 63 70 84 91 91 86
66 92 100 100 86 100 100 100 94 98 77 65 36 30 29 22 18 21 24 31 41 48 62 73 81 100 84 84 83 83 82 61 44 46 56 51 63 71 82 90 100 94 90 99
60 90 100 100 93 88 100 100 100 100 100 93 63 70 81 85 65 66 50 54 63 77 83 93 90 94 90 81 87 87 71 43 39 42 54 73 87 89 95 100 95 96 99 95
80 82 100 100 86 97 100 87 100 100 100 100 100 99 78 76 83 86 93 92 90 92 89 88 98 87 80 83 75 64 41 39 44 59 80 99 100 100 100 97 98 97 90 81
84 100 87 98 100 100 80 100 100 100 98 100 100 100 100 100 100 93 81 82 84 91 85 84 83 79 72 60 52 45 42 46 56 79 100 100 100 99 94 96 92 85 80 70
89 90 99 100 100 100 100 100 100 100 100 100 100 96 95 100 100 100 91 93 100 99 98 85 77 70 61 50 44 45 51 61 81 99 100 98 91 91 89 87 84 76 74 73
100 100 100 86 79 81 100 100 100 100 100 100 100 100 100 100 100 100 100 100 99 97 80 72 59 55 54 56 56 58 66 83 100 96 91 87 86 88 86 83 75 75 71 63
100 100 100 100 96 98 91 95 100 100 100 100 100 100 100 100 100 100 100 100 100 99 96 80 58 59 64 66 67 70 80 94 93 90 92 89 85 86 75 76 75 68 64 48
100 100 100 100 99 100 97 90 93 98 100 100 100 98 86 89 99 100 100 100 100 98 98 97 74 60 56 61 64 67 77 86 89 88 88 86 77 76 75 70 62 48 37 41
86 99 100 100 100 100 100 100 96 94 88 98 92 94 85 98 99 100 100 100 99 97 97 93 78 58 50 50 53 59 71 78 82 80 72 71 75 70 60 45 36 40 39 43
83 96 100 100 100 98 100 100 100 100 95 94 69 73 78 75 86 95 99 100 100 99 100 96 87 69 57 49 45 48 53 54 57 62 68 64 53 40 37 41 39 45 69 70

GFSCGP_250_rhum_009.txt.gz
RH
100 100 100 95 100 100 100 100 100 100 100 99 100 99 97 94 77 70 54 57 100 84 61 64 66 45 33 32 32 32 33 28 22 19 16 17 20 24 42 45 34 20 20 24
100 100 100 100 99 96 98 98 99 100 100 100 100 100 99 89 70 68 82 91 100 100 98 91 66 61 48 38 31 32 32 33 30 26 19 17 33 43 43 46 33 25 29 39
97 100 100 100 99 94 90 82 79 74 84 93 91 95 94 89 95 89 90 85 93 100 100 100 91 72 65 56 44 32 36 31 30 30 25 22 21 25 32 40 40 32 40 42
100 100 100 100 100 100 97 96 86 72 71 74 83 78 90 97 100 90 92 99 90 80 70 95 100 91 90 81 62 46 40 38 29 31 28 25 24 24 29 32 46 50 49 59
98 100 100 100 100 100 100 100 95 98 93 86 92 79 83 95 100 96 93 79 78 69 72 80 73 82 90 83 64 51 49 50 36 33 32 30 27 23 26 32 34 48 56 67
100 100 100 100 100 100 100 100 100 91 86 77 97 72 62 92 95 91 92 71 68 59 56 68 91 76 80 74 78 71 61 59 49 41 35 33 29 26 24 31 36 39 63 82
100 100 100 100 100 100 100 92 91 94 98 88 76 59 54 80 52 41 44 46 48 41 60 88 76 92 86 81 76 87 77 61 56 46 40 37 37 31 27 34 40 38 53 74
96 100 99 100 98 94 100 100 84 50 43 41 44 43 47 43 39 30 27 28 32 35 46 55 63 80 81 82 71 84 82 68 67 57 54 46 42 37 42 65 50 50 73 80
40 43 47 59 61 52 47 56 84 100 85 57 48 40 28 33 21 20 19 18 23 26 31 41 43 49 58 66 66 81 78 81 73 74 63 55 51 58 80 83 90 92 88 90
72 70 88 64 58 80 100 100 95 82 60 47 31 17 14 15 13 10 8 8 11 18 26 34 43 42 44 49 56 77 80 80 67 83 71 64 65 70 73 72 75 75 77 90
79 74 83 99 100 100 90 71 63 75 64 42 30 34 4 6 7 8 5 3 5 8 10 24 36 45 38 44 51 62 73 81 75 82 68 80 84 59 63 79 76 88 96 84
90 100 100 92 82 65 66 75 77 80 71 38 27 21 12 5 4 2 2 2 2 4 11 16 28 45 50 47 50 61 70 83 96 83 76 87 75 92 87 84 94 94 87 83
100 94 83 73 69 78 85 93 79 73 85 73 34 15 10 5 4 3 2 1 2 3 7 14 25 47 51 50 49 57 73 84 100 85 82 90 63 68 85 95 96 91 86 84
90 77 81 70 68 91 95 100 96 80 96 88 52 22 10 6 4 3 2 2 2 6 10 16 27 47 52 51 52 61 76 96 93 89 92 89 57 74 90 89 88 81 77 72
77 87 94 85 77 76 99 80 94 72 83 97 77 39 10 8 5 4 3 3 3 5 11 19 31 45 60 54 58 70 87 95 89 86 100 80 74 73 82 93 95 93 81 59
90 96 85 98 89 84 85 82 100 97 100 86 99 58 24 10 8 6 6 8 6 6 13 22 34 48 62 56 67 78 79 80 88 98 94 81 76 77 82 85 83 88 86 78
93 83 84 100 91 78 81 100 100 100 100 100 99 83 38 20 15 13 15 14 13 14 18 27 40 56 59 66 76 74 76 95 100 100 96 96 92 90 87 88 93 100 100 98
96 89 90 78 92 70 100 100 100 100 100 100 90 95 84 39 36 39 32 28 25 25 28 34 44 53 65 80 78 87 99 100 100 100 99 93 99 100 100 100 100 100 100 100
96 88 95 77 66 74 90 99 96 87 92 96 100 100 100 90 76 58 48 36 31 30 31 36 43 53 68 84 98 100 100 92 98 100 95 99 100 100 100 100 100 100 94 61
99 91 82 71 77 80 70 100 92 100 99 74 80 100 100 100 99 80 65 49 47 54 68 76 90 100 100 100 100 100 100 99 84 92 99 100 100 100 100 100 99 67 62 59
93 96 81 80 83 77 78 99 100 100 100 100 100 76 100 100 100 100 84 80 76 99 90 97 100 100 100 99 95 93 82 78 96 100 100 100 100 96 80 66 72 72 68 68
100 87 72 74 79 79 83 90 99 100 99 100 100 100 100 89 100 100 100 91 91 90 91 100 100 100 99 89 83 80 86 95 100 97 86 72 72 79 86 85 80 75 69 69
99 93 86 72 99 80 89 99 91 100 95 100 100 100 100 94 87 100 100 100 100 95 87 92 81 84 87 92 95 100 97 88 83 86 89 90 89 87 84 78 74 72 69 71
91 87 68 69 79 92 90 94 90 92 98 99 100 100 100 95 74 93 100 100 100 100 96 91 90 86 78 77 82 85 87 85 86 90 91 86 80 76 72 69 65 63 62 62
92 90 82 67 66 73 75 70 78 79 91 100 100 88 100 100 91 77 88 99 100 100 100 100 98 91 91 88 88 87 84 89 89 84 90 94 93 92 90 83 78 78 75 70
94 97 88 77 68 64 63 64 70 78 82 94 97 69 84 97 81 90 91 88 87 84 89 91 88 85 84 83 84 94 100 100 100 100 100 100 97 94 88 82 70 58 50 47

GFSCGP_250_rhum_012.txt.gz
RH
98 94 89 87 78 77 78 83 98 100 100 100 99 84 92 84 80 90 88 78 80 84 72 59 78 100 100 87 64 38 33 37 30 31 28 24 23 24 25 26 22 24 34 33
93 100 92 92 90 96 91 88 87 88 100 100 100 100 97 92 88 96 100 100 100 88 76 61 58 60 60 96 92 67 54 48 37 42 36 32 31 30 29 24 22 21 31 31
99 98 95 87 87 71 78 88 87 84 83 98 97 100 99 100 100 100 100 100 100 100 82 68 55 49 63 95 100 96 77 49 46 40 52 33 32 30 29 32 32 32 35 48
95 94 96 96 72 57 64 82 90 85 83 80 83 82 100 100 100 100 100 100 99 97 92 74 65 56 47 74 97 100 94 80 55 67 59 45 48 38 33 32 31 32 28 25
98 96 89 63 41 40 53 90 98 92 85 82 85 72 76 96 92 96 89 76 79 74 85 99 87 73 62 50 62 89 100 100 100 96 88 65 50 47 43 34 29 32 30 27
92 91 67 46 47 65 84 96 89 97 93 96 92 85 78 100 100 100 81 69 65 72 88 76 67 77 75 58 50 65 85 74 85 96 99 88 50 61 56 44 35 37 34 30
69 67 60 71 81 80 88 94 100 96 94 100 94 89 100 100 100 91 74 78 72 60 50 51 63 65 63 69 64 56 72 90 79 100 97 94 74 76 68 52 47 45 38 31
87 90 95 96 96 95 96 100 100 100 100 100 100 99 100 99 74 66 52 47 47 48 43 46 51 60 68 64 58 61 59 79 100 99 86 90 86 75 72 64 56 53 50 44
99 100 95 99 100 100 100 100 100 100 100 100 99 99 91 69 56 49 36 18 12 12 14 14 21 40 62 60 55 54 49 63 92 99 88 84 100 83 75 76 64 57 56 53
100 100 100 99 100 100 100 99 94 86 80 88 96 79 53 44 34 26 21 15 15 17 18 17 19 21 24 31 47 48 52 56 73 100 92 78 92 86 83 85 72 66 75 62
96 100 92 85 74 71 85 88 100 96 77 59 59 50 41 28 24 19 16 9 8 10 7 6 7 12 23 29 32 34 34 41 59 73 85 74 68 65 93 88 81 67 62 56
67 57 54 76 80 96 100 86 61 72 51 66 70 73 64 40 20 14 9 5 5 6 6 6 6 7 11 21 30 35 33 34 53 62 68 63 61 70 94 94 87 75 72 66
61 70 83 88 100 99 67 57 74 50 89 99 81 83 48 32 14 10 7 6 3 2 4 3 3 4 7 11 20 31 35 46 52 52 54 54 61 94 100 94 88 80 89 73
87 88 97 100 92 72 57 59 65 100 89 82 93 79 65 19 17 10 7 5 3 3 2 2 2 2 3 7 14 24 37 51 48 48 50 68 89 100 96 91 91 89 94 75
90 92 88 75 66 67 79 100 99 78 98 94 81 75 46 35 22 11 7 5 4 3 2 2 2 3 4 9 16 25 38 52 53 63 68 95 100 98 90 100 96 100 82 77
86 80 77 85 90 77 99 100 91 100 97 94 86 82 79 52 32 22 13 8 5 4 3 3 3 4 8 17 25 37 54 65 67 60 85 99 99 95 100 97 95 99 92 91
83 99 81 84 100 100 100 100 100 100 91 81 85 96 98 65 44 32 24 20 14 9 9 10 10 14 23 33 44 58 68 67 58 72 93 100 98 99 99 100 99 98 95 98
94 75 88 80 98 88 75 100 100 88 73 75 79 89 88 86 52 38 37 32 31 28 25 25 28 37 46 54 64 72 69 71 79 99 100 100 100 100 79 86 100 100 100 100
86 82 99 96 87 85 88 75 87 95 86 73 64 84 100 84 79 46 42 44 57 60 51 56 56 57 64 74 68 70 90 99 100 100 100 100 100 100 97 100 100 100 95 91
75 99 100 94 82 80 98 88 87 100 100 93 74 76 99 93 88 67 65 62 57 73 88 84 76 87 93 88 95 100 100 100 100 98 99 100 100 100 92 89 97 99 99 94
99 100 100 96 88 77 86 78 86 99 99 100 92 100 72 99 96 90 77 88 97 84 83 90 96 99 100 100 100 100 100 100 100 100 96 100 97 73 74 79 80 100 98 87
97 97 100 99 90 82 86 74 84 86 91 87 96 100 98 84 96 85 98 92 91 93 100 98 90 97 100 100 100 100 100 100 100 100 96 86 99 100 100 100 96 89 99 100
98 98 100 100 95 90 82 71 76 70 74 80 90 100 100 86 80 95 90 89 100 92 74 89 100 100 100 100 98 100 100 100 100 100 100 98 98 91 86 93 100 100 100 100
100 100 93 94 86 90 86 67 62 62 63 74 87 84 100 97 87 80 100 100 99 96 95 89 85 82 80 79 80 85 87 90 88 91 88 83 89 98 100 100 100 98 90 86
100 100 99 100 98 92 75 64 57 62 61 72 92 85 79 95 92 83 91 98 99 100 100 99 94 95 99 97 93 87 81 82 86 93 98 100 100 100 100 96 89 78 70 60
89 98 100 99 95 90 75 68 70 66 70 74 88 80 79 66 88 95 84 87 92 100 100 100 100 100 100 100 100 100 100 100 100 100 100 100 98 88 81 76 68 58 52 49

GFSCGP_250_rhum_018.txt.gz
RH
92 95 98 100 69 55 60 80 100 100 100 100 100 100 100 100 100 100 100 100 100 100 100 100 100 88 72 73 70 74 72 62 59 59 60 70 64 68 73 77 74 54 44 43
100 99 96 83 76 70 64 59 65 79 92 94 100 100 100 100 100 100 100 100 100 100 100 100 100 100 91 84 80 73 78 75 66 66 62 56 70 81 74 57 66 69 90 93
100 100 94 98 90 91 84 68 57 57 61 60 65 87 100 100 100 100 100 100 100 100 100 100 100 100 100 100 100 96 81 76 74 81 71 72 66 85 100 93 89 93 82 92
100 100 100 100 96 92 91 98 91 83 62 66 68 64 79 88 98 100 100 100 100 100 100 99 88 98 100 100 100 100 98 100 86 82 94 99 80 61 70 68 61 70 78 97
100 100 98 100 98 92 95 93 90 86 86 80 86 80 100 86 87 84 81 85 92 97 100 100 100 100 98 98 99 98 96 97 91 80 78 85 99 83 70 82 86 80 97 100
100 100 96 95 98 100 98 88 88 96 89 87 82 68 80 86 83 71 74 78 70 72 73 72 84 85 77 76 80 80 80 84 85 82 78 77 86 100 85 86 79 78 70 71
97 100 92 91 100 100 100 93 88 95 94 86 86 71 79 91 91 86 70 57 56 59 62 64 67 71 75 75 75 76 81 77 68 68 73 71 82 100 94 83 93 98 89 83
51 71 88 100 99 100 98 97 99 98 92 90 87 84 97 100 78 60 61 60 52 49 46 48 59 70 86 94 90 82 74 64 60 57 56 54 60 73 84 82 85 91 100 98
74 79 86 94 94 94 94 100 100 100 100 88 77 79 90 74 57 36 37 42 52 61 67 68 57 53 50 52 58 61 63 62 56 52 42 46 50 50 67 73 79 91 93 100
70 86 87 78 89 97 100 100 100 89 72 69 79 80 73 63 73 89 85 63 59 58 62 65 64 54 44 39 40 42 38 39 37 34 30 28 33 44 58 61 64 76 100 100
75 80 97 96 99 100 99 90 83 77 74 73 86 98 99 100 99 88 73 60 50 44 36 28 23 23 24 24 23 21 22 25 27 26 29 38 42 56 65 72 78 91 100 100
88 95 100 99 94 92 85 78 86 93 90 99 100 100 100 89 79 63 50 44 38 33 29 26 22 17 18 18 14 15 14 13 11 16 20 23 26 34 52 64 78 88 100 100
85 98 99 96 97 80 86 99 92 100 100 95 84 76 80 68 58 50 35 32 28 29 26 19 15 13 10 7 10 8 7 8 8 9 11 14 25 27 35 46 62 100 100 100
88 97 93 92 93 95 99 96 100 90 85 73 65 80 64 55 44 40 48 55 35 22 16 11 8 6 5 5 4 4 3 4 4 5 6 7 11 21 31 39 59 82 100 100
98 98 98 97 97 88 96 96 78 77 89 98 78 62 54 42 45 56 55 55 35 25 16 8 4 3 3 5 6 6 5 5 7 7 6 10 14 20 30 45 60 79 78 89
100 100 100 94 91 98 82 81 77 82 97 75 72 57 44 51 56 68 75 83 49 22 15 8 4 4 5 6 6 7 7 8 9 10 9 13 19 28 41 59 76 92 95 96
100 100 99 92 85 81 80 77 89 70 51 79 52 58 54 68 65 78 92 98 59 45 22 11 6 6 8 9 9 10 12 14 15 19 24 27 35 48 63 80 86 93 100 100
90 100 95 84 84 78 72 72 74 52 68 58 61 61 68 78 73 80 96 99 80 66 64 49 50 62 38 27 15 20 30 32 27 24 33 42 52 60 79 87 98 100 100 100
98 82 79 74 79 83 79 83 86 61 63 67 72 70 78 79 78 71 84 100 100 95 72 66 61 60 53 42 31 38 43 50 40 69 56 61 79 97 100 100 100 100 100 100
79 73 68 69 66 66 65 81 69 64 70 89 85 70 75 82 84 70 81 100 100 100 100 93 92 95 87 80 85 84 86 100 100 100 100 100 100 100 96 100 100 100 100 100
85 78 60 64 67 69 76 68 78 79 89 89 88 83 73 78 98 82 70 86 100 100 92 81 76 90 100 94 97 100 100 100 94 100 100 100 100 100 100 100 100 90 75 91
86 76 69 84 87 86 77 77 91 82 95 97 99 88 92 76 100 92 81 82 89 88 92 87 78 67 66 80 84 86 100 100 100 99 82 100 100 97 88 94 100 100 100 85
93 97 86 88 90 88 81 87 91 84 89 100 100 98 94 82 97 100 86 79 89 98 86 92 83 68 81 88 93 93 66 67 72 94 89 84 93 98 72 97 100 83 90 89
75 80 81 81 85 95 93 92 100 100 99 100 100 99 96 92 89 100 94 92 91 92 95 98 91 92 83 77 78 76 90 85 74 76 82 73 70 67 76 74 79 88 74 89
74 68 70 86 93 84 89 100 100 99 100 100 100 84 93 94 95 94 98 100 93 96 99 96 86 82 75 85 90 94 98 98 99 94 86 89 97 98 99 99 99 100 100 100
74 69 70 75 98 94 96 83 90 97 100 100 100 95 81 86 85 81 100 92 98 93 91 96 100 100 99 98 97 98 100 100 100 100 100 100 100 100 100 100 100 100 98 88